Regional Weather Roundup
Issued by NWS

Home | Current Version | Previous Version | Graphics & Text | Print | Product List | Glossary On
Versions: 1 2 3 4 5 6 7 8 9 10 11 12 13 14 15 16 17 18 19 20 21 22 23 24 25 26 27 28 29 30 31 32 33 34 35 36 37 38 39 40 41 42 43 44 45 46 47 48 49 50
619
ASUS43 KFSD 290202
RWRSD

WEATHER ROUNDUP FOR SOUTH DAKOTA
NATIONAL WEATHER SERVICE SIOUX FALLS SD
900 PM CDT TUE MAR 28 2017

NOTE: "FAIR" INDICATES FEW OR NO CLOUDS BELOW 12,000 FEET WITH NO
SIGNIFICANT WEATHER AND/OR OBSTRUCTIONS TO VISIBILITY.


SDZ001>005-009-010-012>017-290300-
NORTHWEST AND NORTH CENTRAL SOUTH DAKOTA

CITY           SKY/WX    TMP DP  RH WIND       PRES   REMARKS
BUFFALO          N/A     47  42  83 SE9       30.04R
FAITH            N/A     44  44 100 MISG      30.14R
MOBRIDGE       CLOUDY    54  36  50 SE10      30.12R
$$

SDZ012>016-024>037-041>051-057-063-072>074-290300-
SOUTHWEST AND SOUTH CENTRAL SOUTH DAKOTA

CITY           SKY/WX    TMP DP  RH WIND       PRES   REMARKS
RAPID CTY ARPT CLOUDY    43  42  97 SE5       30.11R
PIERRE         CLOUDY    48  44  86 W9        30.14R
CUSTER         LGT RAIN  37  35  92 E3        30.10R
ELLSWORTH AFB  LGT RAIN  44  44 100 CALM      30.11
PHILIP         LGT RAIN  45  44  97 SE7       30.15R
PINE RIDGE     LGT RAIN  42  41  96 E3        30.11R
SPEARFISH      FAIR      41  37  87 CALM      30.11R
WINNER         LGT RAIN  48  41  76 S9        30.16R
$$

SDZ004>011-016>023-039-040-290300-
NORTHEAST SOUTH DAKOTA

CITY           SKY/WX    TMP DP  RH WIND       PRES   REMARKS
ABERDEEN       CLOUDY    50  33  52 E7        30.17R
WATERTOWN      CLOUDY    47  37  68 NE5       30.16R
BROOKINGS      CLOUDY    52  38  58 SE5       30.15R
SISSETON         N/A     49  40  71 CALM      30.17R
$$

SDZ017-020-022-023-036>040-048>070-290300-
SOUTHEAST SOUTH DAKOTA

CITY           SKY/WX    TMP DP  RH WIND       PRES   REMARKS
SIOUX FALLS    CLOUDY    50  38  63 E6        30.14R
HURON          CLOUDY    52  39  61 E5        30.14R
CHAMBERLAIN    CLOUDY    51  46  84 W5        30.15R
MITCHELL       CLOUDY    52  37  56 S7        30.15R
YANKTON        CLOUDY    54  36  50 NE8       30.11S
$$

ABBREVIATIONS USED IN REMARKS
   TC - TEMPERATURE IN CELSIUS
  WCI - WIND CHILL INDEX
   HX - HEAT INDEX
  VSB - VISIBILITY





USA.gov is the U.S. government's official web portal to all federal, state and local government web resources and services.